• în Republica Moldova
  • Lista ţărilor
  • Pe 7 zile
  • Temperatura apei
  • Hartă satelitară
  • Meteo pe hartă
  • Widget-uri
  • user-avatar
    Intrare

    Meteo pe oră la Sankt Polten

    Astăzi, 30 Martie, Joi

    Timp Temperatura Precipitaţii Vânt Presiune Umiditate
    00:00 +10°C° 0 mm 2 m/s 742 mmHg 91%
    01:00 +9°C° 0 mm 2 m/s 742 mmHg 92%
    02:00 +9°C° 0 mm 2 m/s 742 mmHg 92%
    03:00 +9°C° 0 mm 2 m/s 742 mmHg 93%
    04:00 +9°C° 0 mm 2 m/s 742 mmHg 93%
    05:00 +10°C° 0 mm 2 m/s 743 mmHg 92%
    06:00 +10°C° 0 mm 2 m/s 743 mmHg 92%
    07:00 +11°C° 0 mm 1 m/s 743 mmHg 91%
    08:00 +13°C° 0,1 mm 2 m/s 743 mmHg 85%
    09:00 +14°C° 0,1 mm 2 m/s 743 mmHg 79%
    10:00 +16°C° 0,1 mm 2 m/s 743 mmHg 73%
    11:00 +16°C° 0,1 mm 2 m/s 743 mmHg 70%
    12:00 +17°C° 0,1 mm 2 m/s 743 mmHg 66%
    13:00 +18°C° 0,1 mm 2 m/s 743 mmHg 62%
    14:00 +18°C° 0,1 mm 2 m/s 743 mmHg 62%
    15:00 +19°C° 0,1 mm 1 m/s 742 mmHg 62%
    16:00 +19°C° 0,1 mm 1 m/s 742 mmHg 63%
    17:00 +16°C° 0 mm 1 m/s 742 mmHg 72%
    18:00 +13°C° 0 mm 1 m/s 742 mmHg 81%
    19:00 +11°C° 0 mm 1 m/s 742 mmHg 90%
    20:00 +11°C° 0 mm 1 m/s 742 mmHg 90%
    21:00 +11°C° 0 mm 1 m/s 742 mmHg 91%
    22:00 +10°C° 0 mm 1 m/s 743 mmHg 92%
    23:00 +10°C° 0 mm 1 m/s 742 mmHg 92%

    Mâine, 31 Martie, Vineri

    Timp Temperatura Precipitaţii Vânt Presiune Umiditate
    00:00 +10°C° 0 mm 1 m/s 742 mmHg 92%
    01:00 +10°C° 0 mm 1 m/s 742 mmHg 93%
    02:00 +10°C° 0 mm 1 m/s 742 mmHg 93%
    03:00 +10°C° 0 mm 1 m/s 742 mmHg 94%
    04:00 +9°C° 0 mm 1 m/s 741 mmHg 95%
    05:00 +10°C° 0 mm 1 m/s 741 mmHg 94%
    06:00 +11°C° 0 mm 1 m/s 741 mmHg 93%
    07:00 +11°C° 0 mm 1 m/s 741 mmHg 92%
    08:00 +13°C° 0 mm 2 m/s 741 mmHg 84%
    09:00 +15°C° 0 mm 2 m/s 741 mmHg 77%
    10:00 +17°C° 0 mm 2 m/s 740 mmHg 70%
    11:00 +18°C° 0 mm 3 m/s 740 mmHg 66%
    12:00 +19°C° 0 mm 3 m/s 740 mmHg 62%
    13:00 +20°C° 0 mm 3 m/s 739 mmHg 58%
    14:00 +20°C° 0 mm 3 m/s 739 mmHg 59%
    15:00 +20°C° 0 mm 3 m/s 738 mmHg 61%
    16:00 +20°C° 0 mm 3 m/s 737 mmHg 62%
    17:00 +18°C° 0 mm 3 m/s 737 mmHg 71%
    18:00 +16°C° 0 mm 3 m/s 737 mmHg 79%
    19:00 +13°C° 0 mm 2 m/s 737 mmHg 88%
    20:00 +13°C° 0 mm 2 m/s 737 mmHg 89%
    21:00 +12°C° 0 mm 2 m/s 737 mmHg 91%
    22:00 +10°C° 0 mm 2 m/s 737 mmHg 92%
    23:00 +10°C° 0 mm 2 m/s 736 mmHg 92%

    Poimâine, 1 Aprilie, Sâmbătă

    Timp Temperatura Precipitaţii Vânt Presiune Umiditate
    00:00 +10°C° 0 mm 2 m/s 736 mmHg 93%
    01:00 +9°C° 0 mm 2 m/s 736 mmHg 93%
    02:00 +9°C° 0 mm 2 m/s 736 mmHg 93%
    03:00 +9°C° 0 mm 2 m/s 735 mmHg 94%
    04:00 +8°C° 0 mm 2 m/s 735 mmHg 94%
    05:00 +9°C° 0 mm 2 m/s 735 mmHg 93%
    06:00 +10°C° 0 mm 2 m/s 735 mmHg 91%
    07:00 +10°C° 0 mm 2 m/s 735 mmHg 90%
    08:00 +13°C° 0 mm 2 m/s 735 mmHg 82%
    09:00 +15°C° 0 mm 2 m/s 735 mmHg 74%
    10:00 +17°C° 0 mm 2 m/s 735 mmHg 66%
    11:00 +18°C° 0 mm 3 m/s 735 mmHg 62%
    12:00 +19°C° 0 mm 3 m/s 735 mmHg 57%
    13:00 +20°C° 0 mm 3 m/s 734 mmHg 53%
    14:00 +20°C° 0 mm 3 m/s 734 mmHg 53%
    15:00 +20°C° 0 mm 3 m/s 734 mmHg 53%
    16:00 +20°C° 0 mm 3 m/s 733 mmHg 54%
    17:00 +18°C° 0 mm 2 m/s 733 mmHg 63%
    18:00 +16°C° 0 mm 2 m/s 733 mmHg 72%
    19:00 +13°C° 0 mm 2 m/s 733 mmHg 82%
    20:00 +13°C° 0 mm 2 m/s 734 mmHg 84%
    21:00 +12°C° 0 mm 2 m/s 734 mmHg 86%
    22:00 +10°C° 0 mm 2 m/s 734 mmHg 88%
    23:00 +9°C° 0 mm 2 m/s 735 mmHg 87%

    2 Aprilie, Duminică

    Timp Temperatura Precipitaţii Vânt Presiune Umiditate
    00:00 +10°C° 0 mm 1 m/s 735 mmHg 87%
    01:00 +9°C° 0 mm 1 m/s 735 mmHg 87%
    02:00 +9°C° 0 mm 1 m/s 735 mmHg 86%
    03:00 +9°C° 0 mm 1 m/s 735 mmHg 86%
    04:00 +9°C° 0 mm 1 m/s 736 mmHg 85%
    05:00 +9°C° 0 mm 1 m/s 736 mmHg 82%
    06:00 +10°C° 0 mm 1 m/s 737 mmHg 79%
    07:00 +11°C° 0 mm 1 m/s 737 mmHg 76%
    08:00 +13°C° 0 mm 1 m/s 737 mmHg 72%
    09:00 +15°C° 0 mm 1 m/s 738 mmHg 68%
    10:00 +18°C° 0 mm 1 m/s 738 mmHg 63%
    11:00 +19°C° 0,2 mm 1 m/s 738 mmHg 62%
    12:00 +19°C° 0,2 mm 2 m/s 738 mmHg 62%
    13:00 +19°C° 0,2 mm 2 m/s 738 mmHg 61%
    14:00 +20°C° 0,3 mm 1 m/s 738 mmHg 62%
    15:00 +20°C° 0,3 mm 1 m/s 738 mmHg 64%
    16:00 +20°C° 0,3 mm 1 m/s 738 mmHg 65%
    17:00 +16°C° 0,2 mm 1 m/s 738 mmHg 74%
    18:00 +14°C° 0,2 mm 1 m/s 738 mmHg 83%
    19:00 +11°C° 0,2 mm 1 m/s 738 mmHg 91%
    20:00 +11°C° 0,2 mm 1 m/s 738 mmHg 92%
    21:00 +11°C° 0,2 mm 1 m/s 739 mmHg 93%
    22:00 +11°C° 0,2 mm 1 m/s 739 mmHg 94%
    23:00 +11°C° 0,2 mm 1 m/s 739 mmHg 94%

    3 Aprilie, Luni

    Timp Temperatura Precipitaţii Vânt Presiune Umiditate
    00:00 +11°C° 0,2 mm 1 m/s 739 mmHg 94%
    01:00 +10°C° 0,2 mm 2 m/s 740 mmHg 95%
    02:00 +10°C° 0,2 mm 2 m/s 740 mmHg 95%
    03:00 +10°C° 0,2 mm 2 m/s 740 mmHg 96%
    04:00 +10°C° 0,2 mm 2 m/s 740 mmHg 96%
    05:00 +10°C° 0,1 mm 2 m/s 740 mmHg 95%
    06:00 +12°C° 0,1 mm 2 m/s 741 mmHg 94%
    07:00 +12°C° 0,1 mm 2 m/s 741 mmHg 93%
    08:00 +12°C° 0,1 mm 3 m/s 741 mmHg 90%
    09:00 +13°C° 0,1 mm 3 m/s 741 mmHg 86%
    10:00 +13°C° 0,1 mm 3 m/s 742 mmHg 83%
    11:00 +14°C° 0,1 mm 3 m/s 741 mmHg 80%
    12:00 +16°C° 0,1 mm 3 m/s 741 mmHg 76%
    13:00 +16°C° 0,1 mm 3 m/s 741 mmHg 72%
    14:00 +16°C° 0,1 mm 3 m/s 741 mmHg 71%
    15:00 +16°C° 0,1 mm 3 m/s 741 mmHg 70%
    16:00 +16°C° 0,1 mm 3 m/s 741 mmHg 69%
    17:00 +14°C° 0,1 mm 3 m/s 741 mmHg 76%
    18:00 +13°C° 0,1 mm 2 m/s 741 mmHg 83%
    19:00 +10°C° 0,1 mm 2 m/s 741 mmHg 91%
    20:00 +10°C° 0,1 mm 2 m/s 741 mmHg 91%
    21:00 +9°C° 0,1 mm 2 m/s 742 mmHg 91%
    22:00 +9°C° 0,1 mm 2 m/s 742 mmHg 92%
    23:00 +8°C° 0 mm 2 m/s 742 mmHg 92%

    4 Aprilie, Marţi

    Timp Temperatura Precipitaţii Vânt Presiune Umiditate
    00:00 +8°C° 0 mm 2 m/s 742 mmHg 93%
    01:00 +7°C° 0 mm 2 m/s 742 mmHg 94%
    02:00 +7°C° 0 mm 2 m/s 742 mmHg 94%
    03:00 +6°C° 0 mm 2 m/s 742 mmHg 94%
    04:00 +6°C° 0 mm 2 m/s 742 mmHg 95%
    05:00 +6°C° 0 mm 2 m/s 742 mmHg 93%
    06:00 +7°C° 0 mm 2 m/s 742 mmHg 90%
    07:00 +8°C° 0 mm 2 m/s 742 mmHg 88%
    08:00 +9°C° 0 mm 2 m/s 742 mmHg 80%
    09:00 +10°C° 0 mm 3 m/s 742 mmHg 73%
    10:00 +12°C° 0 mm 3 m/s 742 mmHg 65%
    11:00 +12°C° 0 mm 3 m/s 742 mmHg 62%
    12:00 +13°C° 0 mm 3 m/s 742 mmHg 59%
    13:00 +14°C° 0 mm 3 m/s 741 mmHg 56%
    14:00 +14°C° 0 mm 3 m/s 741 mmHg 57%
    15:00 +14°C° 0 mm 3 m/s 741 mmHg 58%
    16:00 +14°C° 0 mm 3 m/s 741 mmHg 59%
    17:00 +12°C° 0 mm 3 m/s 741 mmHg 67%
    18:00 +10°C° 0 mm 2 m/s 741 mmHg 76%
    19:00 +8°C° 0 mm 2 m/s 741 mmHg 85%
    20:00 +9°C° 0 mm 1 m/s 741 mmHg 86%
    21:00 +8°C° 0 mm 1 m/s 741 mmHg 87%
    22:00 +8°C° 0 mm 1 m/s 741 mmHg 87%
    23:00 +8°C° 0 mm 1 m/s 741 mmHg 87%
    Arată mai mult